THOR ABLESTAR R/B, 47

Orbit data source: Space-Track

THOR ABLESTAR R/B, 47 is space debris in LEO originally from a launch on Wed, 22 Jun 1960 UTC launched from the Air Force Eastern Test Range (AFETR). Debris objects in space refer to the collection of defunct objects orbiting the Earth. Examples of debris include non-operational satellites, rocket bodies, and fragments generated from explosions, collisions, or faulty payload assembly.

Loading next visibility...
Identifier
47, 1960-007C
Orbit
LEO
Country
Flag of USUS
Related business
Manufacturer
Aerojet
Mission
Spacecraft
Bus & Motor
ABLESTAR, Unknown motor
Mass
~600 kg wet, 600 kg dry
Launch date (UTC)
1960-06-22 (66 years ago)
Launch vehicle
Unknown
Launch site
Air Force Eastern Test Range (AFETR)
Object type
Payload
Rocket body
Debris
Shape & HBR
CYL, 1.1 m
Radar Cross Section
Large (>1 m²)

Expand to show TLE details & history
Last TLE update: 11 hours ago

TLE from 11 hours ago
0 THOR ABLESTAR R/B
1 00047U 60007C   26264.43163194  .00000244  00000-0  76803-4 0  9993
2 00047  66.6643 147.9057 0211144  66.2966 296.0137 14.45392041464718
Epoch: 2026-09-21T10:21Z
TLE epoch observation values (Epoch: 2026-09-21T10:21:32.999Z)
Latitude
-0.00004°
Longitude
-7.79337°
Altitude
679.525 km
Speed
7.551 km/s
True Right ascension
09h 51m 37s
True Declination
0° 00' 00"
Sunlit
Object was in daylight at epoch
Visualization orbit readout
Latitude
Unknown
Longitude
Unknown
Altitude
Unknown
Speed
Unknown
Apparent Right ascension
Unknown
Apparent Declination
Unknown
Sunlit
N/A
Visualization observer readout
Local Sidereal Time
14:51:29
Azimuth
Unknown
Elevation
Unknown
Doppler factor
Unknown
Orbital elements
Apogee altitude
889.381 km
Perigee altitude
588.829 km
Semi-major axis
7,117.242 km
Eccentricity
0.02111
Inclination
66.6643°
RAAN
147.9057°
Arg. of periapsis
66.2966°
True anomaly
293.81438°
Mean anomaly
296.0137°
Eccentric anomaly
294.91654°
Mean motion
3.61473 °/min
Orbital period
99.59 mins
BSTAR
0.000076803
Loading maneuver chart data...
Computing Atmospheric mass density...
Loading historical data...
Loading historical data...
Loading historical data...
Loading historical data...
Loading historical data...
Loading historical data...
Loading historical data...

Documentation

Showing up to 5 results
|